Regional Weather Roundup
Issued by NWS Charleston, WV

Home | Current Version | Previous Version | Graphics & Text | Print | Product List | Glossary On
Versions: 1 2 3 4 5 6 7 8 9 10 11 12 13 14 15 16 17 18 19 20 21 22 23 24 25 26
000
ASUS41 KRLX 171210
RWRRLX
West Virginia Regional Weather Roundup
National Weather Service Charleston WV
700 AM EST SAT FEB 17 2018

Note: "fair" indicates few or no clouds below 12,000 feet with no
significant weather and/or obstructions to visibility.

WVZ003-171300-
Northern Panhandle of West Virginia

CITY           SKY/WX    TMP DP  RH WIND       PRES   REMARKS
WHEELING       CLOUDY    28  20  71 E7        30.23F
$$

WVZ009-171300-
Northwest West Virginia

CITY           SKY/WX    TMP DP  RH WIND       PRES   REMARKS
PARKERSBURG      N/A     29  24  82 NE3       30.26F
$$

WVZ006-171300-
Western West Virginia

CITY           SKY/WX    TMP DP  RH WIND       PRES   REMARKS
HUNTINGTON       N/A     33  29  85 NE6       30.19F
$$

WVZ015-171300-
West Central West Virginia

CITY           SKY/WX    TMP DP  RH WIND       PRES   REMARKS
CHARLESTON       N/A     33  31  92 NE3       30.19F
$$

WVZ022-031-171300-
North Central West Virginia

CITY           SKY/WX    TMP DP  RH WIND       PRES   REMARKS
CLARKSBURG       N/A     29  25  85 NE3       30.23F
MORGANTOWN       N/A     27  21  78 NE3       30.25F
$$

WVZ025-035-042-045-171300-
Southern West Virginia

CITY           SKY/WX    TMP DP  RH WIND       PRES   REMARKS
BECKLEY          N/A     33  30  88 SE8       30.15F
LOGAN            N/A     36  36 100 CALM      30.15F FOG
BLUEFIELD        N/A     33  29  85 E3        30.15F
LEWISBURG        N/A     31  28  89 CALM      30.20S
$$

WVZ047-171300-
Northern Mountains of West Virginia

CITY           SKY/WX    TMP DP  RH WIND       PRES   REMARKS
ELKINS           N/A     27  25  92 CALM      30.20F FOG
$$

WVZ052-171300-
Eastern Panhandle of West Virginia

CITY           SKY/WX    TMP DP  RH WIND       PRES   REMARKS
MARTINSBURG      N/A     23  20  88 CALM      30.34S
PETERSBURG       N/A     27  24  87 CALM      30.29F
$$




USA.gov is the U.S. government's official web portal to all federal, state and local government web resources and services.